Tracking 22455 objects as of 9-Mar-2021
HD Live streaming from Space Station
objects crossing your sky now

CZ-4 DEB

Track CZ-4 DEB now!
10-day predictions


NORAD ID: 20894
Int'l Code: 1990-081BE
Perigee: 795.5 km
Apogee: 824.4 km
Inclination: 98.5 °
Period: 100.9 minutes
Semi major axis: 7180 km
RCS: 0.0352 m2 (small)
Launch date: September 3, 1990
Source: People's Republic of China (PRC)
Launch site: Taiyaun Space Center, China (TSC)

Note: This is SATELLITE DEBRIS
aabbcc
Your satellite tracking list
Your tracking list is empty




NASA's NSSDC Master Catalog

Two Line Element Set (TLE):
1 20894U 90081BE  21067.04113873  .00000344  00000-0  15972-3 0  9992
2 20894  98.5113  80.8789 0020146 213.9585 208.6876 14.26697854574968
Source of the keplerian elements: AFSPC